CST,Max TemperatureF,Mean TemperatureF,Min TemperatureF,Max Dew PointF,MeanDew PointF,Min DewpointF,Max Humidity, Mean Humidity, Min Humidity, Max Sea Level PressureIn, Mean Sea Level PressureIn, Min Sea Level PressureIn, Max VisibilityMiles, Mean VisibilityMiles, Min VisibilityMiles, Max Wind SpeedMPH, Mean Wind SpeedMPH, Max Gust SpeedMPH,PrecipitationIn, CloudCover, Events, WindDirDegrees
2011-11-1,65,51,36,39,36,31,83,59,40,29.98,29.89,29.81,10,10,10,20,9,21,0.00,0,,10
2011-11-2,46,38,30,34,31,24,96,84,52,30.45,30.24,29.99,10,5,1,32,25,47,0.22,7,Rain-Snow-Thunderstorm,1
2011-11-3,48,36,24,28,22,19,81,62,34,30.47,30.39,30.27,10,10,10,12,8,,0.00,0,,270
2011-11-4,59,43,27,28,25,21,78,54,31,30.22,30.04,29.87,10,10,10,25,10,36,0.00,0,,158
2011-11-5,62,52,41,30,27,24,53,40,29,29.85,29.60,29.42,10,10,10,32,16,48,0.00,1,,176
2011-11-6,57,42,26,38,27,19,88,58,23,30.11,29.91,29.55,10,10,10,21,8,28,0.00,0,,271
2011-11-7,45,35,25,40,32,20,96,81,62,30.19,30.09,30.02,10,8,2,16,7,24,0.01,6,Rain,50
2011-11-8,41,36,31,39,36,28,97,91,79,30.26,30.09,30.02,10,7,2,22,14,30,0.31,7,Rain-Snow,10
2011-11-9,53,41,28,29,26,23,82,62,32,30.46,30.39,30.28,10,10,10,20,10,26,0.00,1,,306
2011-11-10,57,40,23,28,24,20,81,55,29,30.43,30.24,29.98,10,10,10,12,5,,0.00,0,,250
2011-11-11,68,49,29,26,23,19,79,46,15,29.96,29.85,29.70,10,10,10,17,7,23,0.00,0,,274
2011-11-12,70,50,29,31,27,21,82,49,17,29.68,29.49,29.34,10,10,10,14,4,22,0.00,0,,282
2011-11-13,60,48,36,33,25,17,73,42,26,29.61,29.54,29.34,10,10,10,17,9,23,0.00,0,,292
2011-11-14,62,49,35,30,27,20,76,47,20,29.80,29.70,29.60,10,10,10,18,10,25,0.00,0,,250
2011-11-15,61,46,30,30,24,18,82,50,19,30.07,29.88,29.71,10,10,10,22,10,30,0.00,1,,339
2011-11-16,37,29,20,28,25,13,93,81,40,30.46,30.32,30.09,10,6,0,21,9,24,0.01,7,Fog-Snow,349
2011-11-17,53,36,18,26,20,14,81,54,27,30.44,30.13,29.82,10,10,10,24,10,34,0.00,0,,223
2011-11-18,66,47,28,29,25,22,78,51,24,29.79,29.64,29.47,10,10,10,16,8,22,0.00,0,,201
2011-11-19,45,33,21,27,23,19,85,76,64,30.21,29.70,29.42,10,7,1,23,9,30,0.00,4,,345
2011-11-20,37,27,17,23,18,14,88,78,57,30.37,30.29,30.23,10,10,10,10,6,,0.00,1,,42
2011-11-21,38,27,15,26,20,12,89,79,62,30.28,30.19,30.10,10,10,10,6,1,,0.00,0,,122
2011-11-22,61,41,20,31,23,18,92,66,25,30.19,30.13,30.05,10,9,7,21,6,30,0.00,0,,290
2011-11-23,68,48,27,31,26,21,75,50,22,30.24,30.15,30.05,10,10,9,8,5,,0.00,0,,255
2011-11-24,72,56,39,38,30,25,73,37,17,30.01,29.90,29.79,10,10,10,17,9,30,0.00,0,,216
2011-11-25,62,49,35,38,32,28,89,57,28,29.77,29.71,29.68,10,10,10,14,6,,0.00,2,,263
2011-11-26,52,41,29,29,18,7,56,40,21,30.45,30.23,29.79,10,10,10,39,26,53,0.00,2,,334
2011-11-27,47,35,22,13,10,5,66,44,18,30.47,30.36,30.24,10,10,10,14,8,23,0.00,0,,299
2011-11-28,65,43,20,28,21,12,74,51,21,30.29,30.15,30.01,10,10,10,16,5,,0.00,0,,319
2011-11-29,49,39,29,29,22,15,85,57,29,30.44,30.35,30.22,10,10,6,15,8,,0.00,0,,321
2011-11-30,59,44,28,31,26,18,78,57,35,30.17,29.94,29.76,10,10,9,15,9,,0.00,0,,186